EW4427 Weather Reports


Display with metric or nautical units.
time (UTC)temp
F
wind
direction
speed
MPH
gust
MPH
rain 1hr
in
rain 24hr
in
rain mn
in
humidity
%
barometer
mb
20260508030548 40 0 0.0 1.0 0.00 0.00 0.00 80 1011.0
20260508030051 40 0 0.0 0.0 0.00 0.00 0.00 79 1011.0
20260508025545 40 0 0.0 0.0 0.00 0.00 0.00 79 1011.1
20260508025047 40 0 0.0 2.0 0.00 0.00 0.00 79 1011.0
20260508024603 40 0 0.0 2.0 0.00 0.00 0.00 79 1010.9
20260508024050 40 0 0.0 2.0 0.00 0.00 0.00 78 1010.9
20260508023546 40 0 0.0 1.0 0.00 0.00 0.00 78 1011.0
20260508023052 40 0 0.0 3.0 0.00 0.00 0.00 77 1010.9
20260508022548 41 0 0.0 3.0 0.00 0.00 0.00 77 1010.7
20260508022043 41 0 0.0 3.0 0.00 0.00 0.00 76 1010.7
20260508021555 41 0 0.0 3.0 0.00 0.00 0.00 75 1010.6
20260508021045 41 38 0.0 3.0 0.00 0.00 0.00 75 1010.6
20260508020545 41 0 0.0 4.0 0.00 0.00 0.00 74 1010.5
20260508020053 42 13 0.0 4.0 0.00 0.00 0.00 73 1010.4
20260508015547 42 30 0.0 4.0 0.00 0.00 0.00 72 1010.4
20260508015048 42 19 1.0 4.0 0.00 0.00 0.00 72 1010.3
20260508014551 42 22 0.0 4.0 0.00 0.00 0.00 71 1010.2
20260508014049 43 0 0.0 3.0 0.00 0.00 0.00 70 1010.2
20260508013546 43 0 0.0 3.0 0.00 0.00 0.00 69 1010.1
20260508013052 44 32 0.0 4.0 0.00 0.00 0.00 68 1010.1
20260508012549 44 0 0.0 4.0 0.00 0.00 0.00 67 1010.1
20260508012047 44 16 0.0 8.0 0.00 0.00 0.00 67 1010.0
20260508011556 45 5 2.0 8.0 0.00 0.00 0.00 66 1010.0
20260508011045 45 33 1.0 5.0 0.00 0.00 0.00 65 1010.0
20260508010548 46 9 0.0 5.0 0.00 0.00 0.00 66 1010.0
20260508010050 46 24 0.0 3.0 0.00 0.00 0.00 65 1009.8
20260508005549 46 0 1.0 4.0 0.00 0.00 0.00 65 1009.6
20260508005042 47 20 0.0 4.0 0.00 0.00 0.00 65 1009.5
20260508004555 47 30 2.0 5.0 0.00 0.00 0.00 64 1009.4
20260508004046 47 0 0.0 5.0 0.00 0.00 0.00 64 1009.3
20260508003542 47 0 1.0 5.0 0.00 0.00 0.00 64 1009.2
20260508003048 48 69 0.0 4.0 0.00 0.00 0.00 64 1009.1
20260508002545 48 85 0.0 4.0 0.00 0.00 0.00 64 1009.2
20260508002049 48 66 0.0 4.0 0.00 0.00 0.00 63 1009.3
20260508001550 48 22 1.0 4.0 0.00 0.00 0.00 63 1009.3
20260508001047 48 0 0.0 3.0 0.00 0.00 0.00 64 1009.2
20260508000546 49 51 0.0 3.0 0.00 0.00 0.00 64 1009.3
20260508000056 49 9 0.0 3.0 0.00 0.00 0.00 64 1009.1
20260507235547 49 0 0.0 5.0 0.00 0.00 0.00 65 1009.1
20260507235045 49 17 2.0 5.0 0.00 0.00 0.00 64 1009.2
20260507234551 49 0 0.0 6.0 0.00 0.00 0.00 64 1009.2
20260507234042 49 22 1.0 6.0 0.00 0.00 0.00 64 1009.2
20260507233542 49 57 1.0 5.0 0.00 0.00 0.00 64 1009.1
20260507233101 50 0 1.0 4.0 0.00 0.00 0.00 64 1009.2
20260507232542 50 58 0.0 4.0 0.00 0.00 0.00 66 1009.2
20260507232042 50 134 0.0 4.0 0.00 0.00 0.00 66 1009.2
20260507231554 50 128 0.0 3.0 0.00 0.00 0.00 65 1009.2
20260507231044 50 138 1.0 4.0 0.00 0.00 0.00 65 1009.2
20260507230544 50 150 1.0 4.0 0.00 0.00 0.00 64 1009.1
20260507230054 51 0 1.0 4.0 0.00 0.00 0.00 66 1009.1
20260507225542 51 60 0.0 4.0 0.00 0.00 0.00 66 1009.2
20260507225045 51 0 0.0 4.0 0.00 0.00 0.00 70 1009.2
20260507224556 51 0 1.0 6.0 0.00 0.00 0.00 67 1009.1
20260507224046 51 0 1.0 6.0 0.00 0.00 0.00 67 1009.0
20260507223545 51 191 3.0 6.0 0.00 0.00 0.00 69 1009.2
20260507223048 50 116 1.0 6.0 0.00 0.00 0.00 66 1009.3
20260507222545 50 119 1.0 6.0 0.00 0.00 0.00 68 1009.2
20260507222042 50 105 1.0 6.0 0.00 0.00 0.00 67 1009.3
20260507221554 50 192 1.0 6.0 0.00 0.00 0.00 67 1009.3
20260507221045 50 93 1.0 6.0 0.00 0.00 0.00 67 1009.4
20260507220542 50 0 1.0 5.0 0.00 0.00 0.00 67 1009.3
20260507220046 49 113 1.0 5.0 0.00 0.00 0.00 65 1009.5
20260507215546 50 153 2.0 8.0 0.00 0.00 0.00 65 1009.5
20260507215043 50 0 1.0 8.0 0.00 0.00 0.00 62 1009.5
20260507214603 50 168 1.0 8.0 0.00 0.00 0.00 62 1009.6
20260507214042 50 122 1.0 6.0 0.00 0.00 0.00 61 1009.5
20260507213543 50 0 1.0 9.0 0.00 0.00 0.00 60 1009.4
20260507213101 50 150 1.0 9.0 0.00 0.00 0.00 59 1009.5
20260507212548 51 146 2.0 8.0 0.00 0.00 0.00 57 1009.4
20260507212044 50 140 1.0 10.0 0.00 0.00 0.00 61 1009.6
20260507211551 50 80 2.0 10.0 0.00 0.00 0.00 57 1009.6
20260507211042 51 129 2.0 10.0 0.00 0.00 0.00 55 1009.6
20260507210545 52 190 2.0 10.0 0.00 0.00 0.00 57 1009.5
20260507210051 53 161 1.0 8.0 0.00 0.00 0.00 56 1009.8
20260507205546 52 149 2.0 8.0 0.00 0.00 0.00 54 1009.7
20260507205043 51 193 1.0 9.0 0.00 0.00 0.00 57 1009.7
20260507204558 51 0 3.0 9.0 0.00 0.00 0.00 53 1009.7
20260507204046 51 165 1.0 8.0 0.00 0.00 0.00 56 1009.6
20260507203543 51 0 1.0 6.0 0.00 0.00 0.00 59 1009.8
20260507203058 51 102 2.0 8.0 0.00 0.00 0.00 55 1009.8
20260507202549 52 5 2.0 8.0 0.00 0.00 0.00 56 1010.0
20260507202047 51 0 1.0 6.0 0.00 0.00 0.00 62 1010.2
20260507201603 50 82 0.0 6.0 0.00 0.00 0.00 65 1010.4
20260507201048 49 80 1.0 12.0 0.00 0.00 0.00 61 1010.6
20260507200550 50 31 3.0 12.0 0.00 0.00 0.00 59 1010.8
20260507200052 50 59 2.0 9.0 0.00 0.00 0.00 54 1010.6
20260507195547 50 0 1.0 8.0 0.00 0.00 0.00 54 1010.6
20260507195047 50 21 1.0 8.0 0.00 0.00 0.00 54 1010.6
20260507194618 50 43 3.0 8.0 0.00 0.00 0.00 54 1010.6
20260507194046 50 28 3.0 10.0 0.00 0.00 0.00 54 1010.2
20260507193543 51 0 3.0 10.0 0.00 0.00 0.00 55 1010.0
20260507193052 51 119 2.0 9.0 0.00 0.00 0.00 54 1010.0
20260507192543 51 124 2.0 8.0 0.00 0.00 0.00 54 1009.9
20260507192042 51 134 1.0 7.0 0.00 0.00 0.00 56 1010.0
20260507191556 52 107 3.0 7.0 0.00 0.00 0.00 53 1010.1
20260507191043 52 96 2.0 7.0 0.00 0.00 0.00 55 1010.2
20260507190542 52 193 1.0 9.0 0.00 0.00 0.00 55 1010.1
20260507190056 52 65 2.0 9.0 0.00 0.00 0.00 52 1010.1
20260507185547 52 120 2.0 9.0 0.00 0.00 0.00 51 1010.4
20260507185047 54 0 2.0 6.0 0.00 0.00 0.00 51 1010.4
20260507184553 56 113 2.0 5.0 0.00 0.00 0.00 48 1010.7
20260507184046 55 0 2.0 5.0 0.00 0.00 0.00 46 1010.8
20260507183548 55 202 0.0 4.0 0.00 0.00 0.00 45 1010.6
20260507183059 55 0 0.0 8.0 0.00 0.00 0.00 46 1010.7
20260507182547 55 192 1.0 8.0 0.00 0.00 0.00 45 1010.7
20260507182043 55 188 4.0 12.0 0.00 0.00 0.00 50 1010.8
20260507181557 54 199 1.0 12.0 0.00 0.00 0.00 51 1010.9
20260507181047 54 191 6.0 9.0 0.00 0.00 0.00 50 1011.1
20260507180543 54 209 0.0 5.0 0.00 0.00 0.00 50 1011.1
20260507180058 53 0 0.0 8.0 0.00 0.00 0.00 50 1011.1
20260507175542 53 0 1.0 11.0 0.00 0.00 0.00 49 1011.3
20260507175044 54 238 2.0 11.0 0.00 0.00 0.00 47 1011.6
20260507174619 54 239 3.0 7.0 0.00 0.00 0.00 49 1011.4
20260507174044 54 237 3.0 7.0 0.00 0.00 0.00 46 1011.3
20260507173542 55 178 3.0 7.0 0.00 0.00 0.00 46 1011.4
20260507173122 55 0 0.0 8.0 0.00 0.00 0.00 49 1011.4
20260507172545 54 171 0.0 8.0 0.00 0.00 0.00 46 1011.6
20260507172043 54 190 5.0 8.0 0.00 0.00 0.00 45 1011.6
20260507171601 55 191 0.0 6.0 0.00 0.00 0.00 47 1011.7
20260507171043 53 0 1.0 8.0 0.00 0.00 0.00 42 1011.8
20260507170546 54 180 2.0 9.0 0.00 0.00 0.00 50 1011.9
20260507170110 53 185 5.0 9.0 0.00 0.00 0.00 55 1012.1
20260507165543 53 186 4.0 8.0 0.00 0.00 0.00 50 1012.2
20260507165043 53 203 2.0 6.0 0.00 0.00 0.00 51 1012.2
20260507164556 53 194 1.0 6.0 0.00 0.00 0.00 49 1012.1
20260507164043 53 189 2.0 6.0 0.00 0.00 0.00 49 1012.3
20260507163542 53 0 3.0 7.0 0.00 0.00 0.00 51 1012.3
20260507163049 52 180 1.0 9.0 0.00 0.00 0.00 47 1012.4
20260507162543 51 184 4.0 9.0 0.00 0.00 0.00 49 1012.5
20260507162045 52 183 4.0 9.0 0.00 0.00 0.00 53 1012.7
20260507161603 51 200 4.0 7.0 0.00 0.00 0.00 54 1012.7
20260507161043 51 192 3.0 7.0 0.00 0.00 0.00 47 1012.8
20260507160543 51 189 1.0 6.0 0.00 0.00 0.00 52 1012.9
20260507160052 51 0 0.0 6.0 0.00 0.00 0.00 45 1012.9
20260507155544 49 221 3.0 6.0 0.00 0.00 0.00 52 1013.0
20260507155044 49 183 1.0 7.0 0.00 0.00 0.00 49 1013.1
20260507154551 49 183 3.0 7.0 0.00 0.00 0.00 54 1013.1
20260507154041 49 221 1.0 6.0 0.00 0.00 0.00 52 1013.1
20260507153543 49 0 2.0 4.0 0.00 0.00 0.00 53 1013.3
20260507153057 50 202 1.0 4.0 0.00 0.00 0.00 54 1013.4
20260507152542 49 36 1.0 6.0 0.00 0.00 0.00 52 1013.6
20260507152042 49 201 1.0 6.0 0.00 0.00 0.00 55 1013.6
20260507151556 48 188 2.0 6.0 0.00 0.00 0.00 53 1013.6
20260507151041 48 197 1.0 5.0 0.00 0.00 0.00 58 1013.7
20260507150543 48 196 0.0 5.0 0.00 0.00 0.00 52 1013.9
20260507150100 49 0 2.0 5.0 0.00 0.00 0.00 53 1013.9
20260507145543 48 47 0.0 6.0 0.00 0.00 0.00 55 1013.9
20260507145045 47 186 3.0 6.0 0.00 0.00 0.00 55 1014.0
20260507144548 48 213 1.0 5.0 0.00 0.00 0.00 56 1014.0
20260507144047 48 172 1.0 5.0 0.00 0.00 0.00 56 1014.1
20260507143542 47 0 1.0 5.0 0.00 0.00 0.00 59 1014.2
20260507143059 46 213 1.0 5.0 0.00 0.00 0.00 59 1014.3
20260507142547 46 215 2.0 5.0 0.00 0.00 0.00 59 1014.4
20260507142046 46 200 2.0 5.0 0.00 0.00 0.00 58 1014.5
20260507141619 46 198 0.0 4.0 0.00 0.00 0.00 57 1014.6
20260507141051 45 0 1.0 4.0 0.00 0.00 0.00 56 1014.6
20260507140547 46 227 1.0 4.0 0.00 0.00 0.00 59 1014.7
20260507140052 45 0 1.0 4.0 0.00 0.00 0.00 59 1014.5
20260507135546 45 213 1.0 5.0 0.00 0.00 0.00 61 1014.6
20260507135046 45 194 2.0 5.0 0.00 0.00 0.00 61 1014.7
20260507134549 45 207 0.0 3.0 0.00 0.00 0.00 60 1014.8
20260507134044 44 0 1.0 3.0 0.00 0.00 0.00 64 1014.8
20260507133546 44 0 1.0 3.0 0.00 0.00 0.00 64 1014.6
20260507133048 43 0 0.0 3.0 0.00 0.00 0.00 65 1014.8
20260507132545 43 192 0.0 1.0 0.00 0.00 0.00 68 1014.6
20260507132042 42 0 0.0 1.0 0.00 0.00 0.00 68 1014.8
20260507131551 42 0 0.0 1.0 0.00 0.00 0.00 68 1014.9
20260507131046 42 0 0.0 2.0 0.00 0.00 0.00 68 1014.9
20260507130546 41 0 0.0 2.0 0.00 0.00 0.00 69 1014.9
20260507130053 40 0 0.0 2.0 0.00 0.00 0.00 68 1014.9
20260507125548 40 0 0.0 3.0 0.00 0.00 0.00 71 1014.7
20260507125044 40 0 0.0 3.0 0.00 0.00 0.00 73 1014.7
20260507124552 39 0 0.0 3.0 0.00 0.00 0.00 72 1014.7
20260507124044 38 0 0.0 3.0 0.00 0.00 0.00 72 1014.7
20260507123544 37 200 0.0 0.0 0.00 0.00 0.00 74 1014.6
20260507123053 37 0 0.0 0.0 0.00 0.00 0.00 76 1014.6
20260507122546 36 0 0.0 1.0 0.00 0.00 0.00 76 1014.6
20260507122046 36 0 0.0 2.0 0.00 0.00 0.00 77 1014.5
20260507121550 36 0 0.0 2.0 0.00 0.00 0.00 77 1014.5
20260507121044 35 0 0.0 2.0 0.00 0.00 0.00 78 1014.5
20260507120545 35 0 0.0 1.0 0.00 0.00 0.00 78 1014.5
20260507115546 34 0 0.0 2.0 0.00 0.00 0.00 78 1014.4
20260507115049 34 224 0.0 2.0 0.00 0.00 0.00 78 1014.3
20260507114553 33 0 0.0 0.0 0.00 0.00 0.00 77 1014.1
20260507114047 33 0 0.0 0.0 0.00 0.00 0.00 76 1014.2
20260507113546 33 0 0.0 0.0 0.00 0.00 0.00 76 1014.1
20260507113053 33 0 0.0 0.0 0.00 0.00 0.00 76 1014.1
20260507112547 33 0 0.0 0.0 0.00 0.00 0.00 76 1014.1
20260507112047 33 0 0.0 0.0 0.00 0.00 0.00 76 1014.1
20260507111551 33 0 0.0 0.0 0.00 0.00 0.00 75 1014.0
20260507111047 33 0 0.0 1.0 0.00 0.00 0.00 75 1014.0
20260507110547 33 0 0.0 1.0 0.00 0.00 0.00 75 1014.0
20260507110056 33 0 0.0 0.0 0.00 0.00 0.00 74 1014.0
20260507105546 33 0 0.0 0.0 0.00 0.00 0.00 74 1013.9
20260507105046 33 0 0.0 0.0 0.00 0.00 0.00 74 1014.0
20260507104550 33 0 0.0 0.0 0.00 0.00 0.00 74 1014.0
20260507104046 33 0 0.0 0.0 0.00 0.00 0.00 74 1014.1
20260507103546 33 0 0.0 0.0 0.00 0.00 0.00 74 1014.0
20260507103053 33 0 0.0 0.0 0.00 0.00 0.00 74 1013.9
20260507102545 33 0 0.0 0.0 0.00 0.00 0.00 74 1014.0
20260507102046 33 0 0.0 0.0 0.00 0.00 0.00 73 1014.1
20260507101600 33 0 0.0 0.0 0.00 0.00 0.00 73 1014.0
20260507101045 33 0 0.0 0.0 0.00 0.00 0.00 73 1014.0
20260507100545 33 0 0.0 0.0 0.00 0.00 0.00 73 1014.1
20260507100059 33 0 0.0 0.0 0.00 0.00 0.00 73 1014.1
20260507095547 33 0 0.0 0.0 0.00 0.00 0.00 73 1014.1
20260507095049 33 0 0.0 0.0 0.00 0.00 0.00 73 1014.0
20260507094557 33 0 0.0 0.0 0.00 0.00 0.00 73 1014.0
20260507094046 33 0 0.0 0.0 0.00 0.00 0.00 73 1014.1
20260507093547 33 0 0.0 0.0 0.00 0.00 0.00 72 1014.0
20260507093052 33 0 0.0 0.0 0.00 0.00 0.00 72 1014.0
20260507092546 33 0 0.0 0.0 0.00 0.00 0.00 72 1014.0
20260507092045 33 0 0.0 0.0 0.00 0.00 0.00 72 1014.0
20260507091554 33 0 0.0 0.0 0.00 0.00 0.00 72 1014.0
20260507091046 33 0 0.0 0.0 0.00 0.00 0.00 72 1014.0
20260507090546 33 0 0.0 0.0 0.00 0.00 0.00 71 1014.0
20260507090100 34 0 0.0 0.0 0.00 0.00 0.00 71 1013.9
20260507085545 34 0 0.0 0.0 0.00 0.00 0.00 71 1014.0
20260507085047 34 0 0.0 0.0 0.00 0.00 0.00 71 1014.0
20260507084601 34 0 0.0 0.0 0.00 0.00 0.00 71 1014.0
20260507084046 34 0 0.0 0.0 0.00 0.00 0.00 71 1014.0
20260507083545 34 0 0.0 0.0 0.00 0.00 0.00 71 1014.0
20260507083056 34 0 0.0 0.0 0.00 0.00 0.00 71 1014.1
20260507082548 34 0 0.0 0.0 0.00 0.00 0.00 71 1014.0
20260507082046 34 0 0.0 0.0 0.00 0.00 0.00 71 1014.0
20260507081551 34 0 0.0 0.0 0.00 0.00 0.00 71 1014.1
20260507081044 34 0 0.0 0.0 0.00 0.00 0.00 71 1014.0
20260507080544 34 0 0.0 0.0 0.00 0.00 0.00 70 1014.0
20260507080056 34 0 0.0 0.0 0.00 0.00 0.00 70 1014.0
20260507075546 34 0 0.0 0.0 0.00 0.00 0.00 69 1014.0
20260507075044 34 0 0.0 0.0 0.00 0.00 0.00 69 1013.9
20260507074553 34 0 0.0 0.0 0.00 0.00 0.00 69 1014.2
20260507074043 34 0 0.0 0.0 0.00 0.00 0.00 69 1014.1
20260507073548 34 0 0.0 0.0 0.00 0.00 0.00 69 1014.1
20260507073121 34 0 0.0 0.0 0.00 0.00 0.00 68 1014.2
20260507072544 35 0 0.0 0.0 0.00 0.00 0.00 68 1014.3
20260507072044 35 0 0.0 0.0 0.00 0.00 0.00 68 1014.2
20260507071553 35 0 0.0 0.0 0.00 0.00 0.00 68 1014.2
20260507071045 35 0 0.0 0.0 0.00 0.00 0.00 68 1014.2
20260507070544 35 0 0.0 0.0 0.00 0.00 0.00 68 1014.4
20260507070051 35 0 0.0 0.0 0.00 0.00 0.00 68 1014.3
20260507065546 35 0 0.0 0.0 0.00 0.00 0.00 68 1014.4
20260507065044 35 0 0.0 0.0 0.00 0.00 0.00 67 1014.4
20260507064608 35 0 0.0 0.0 0.00 0.00 0.00 67 1014.4
20260507064044 35 0 0.0 0.0 0.00 0.00 0.00 67 1014.5
20260507063547 35 0 0.0 0.0 0.00 0.00 0.00 68 1014.7
20260507063057 35 0 0.0 0.0 0.00 0.00 0.00 68 1014.8
20260507062543 35 0 0.0 0.0 0.00 0.00 0.00 68 1014.9
20260507062043 35 0 0.0 0.0 0.00 0.00 0.00 68 1014.9
20260507061549 35 0 0.0 0.0 0.00 0.00 0.00 68 1014.9
20260507061042 35 0 0.0 0.0 0.00 0.00 0.00 68 1014.8
20260507060544 35 0 0.0 0.0 0.00 0.00 0.00 69 1014.8
20260507060051 35 0 0.0 0.0 0.00 0.00 0.00 69 1014.8
20260507055543 35 0 0.0 0.0 0.00 0.00 0.00 69 1014.8
20260507055044 35 0 0.0 0.0 0.00 0.00 0.00 69 1014.7
20260507054547 35 0 0.0 0.0 0.00 0.00 0.00 69 1014.8
20260507054043 35 0 0.0 0.0 0.00 0.00 0.00 69 1014.8
20260507053544 36 0 0.0 0.0 0.00 0.00 0.00 69 1015.0
20260507053050 36 0 0.0 0.0 0.00 0.00 0.00 69 1014.9
20260507052543 36 0 0.0 0.0 0.00 0.00 0.00 68 1014.9
20260507052043 36 0 0.0 0.0 0.00 0.00 0.00 68 1014.7
20260507051551 36 0 0.0 0.0 0.00 0.00 0.00 68 1014.9
20260507051044 36 0 0.0 0.0 0.00 0.00 0.00 68 1014.8
20260507050543 36 0 0.0 0.0 0.00 0.00 0.00 67 1015.0
20260507050056 37 0 0.0 0.0 0.00 0.00 0.00 67 1014.9
20260507045544 37 0 0.0 0.0 0.00 0.00 0.00 67 1014.9
20260507045043 37 0 0.0 0.0 0.00 0.00 0.00 67 1015.0
20260507044552 37 0 0.0 0.0 0.00 0.00 0.00 67 1014.9
20260507044043 37 0 0.0 0.0 0.00 0.00 0.00 67 1014.9
20260507043543 38 0 0.0 0.0 0.00 0.00 0.00 66 1014.9
20260507043049 38 0 0.0 0.0 0.00 0.00 0.00 65 1014.9
20260507042543 38 0 0.0 0.0 0.00 0.00 0.00 65 1014.9
20260507042043 38 0 0.0 0.0 0.00 0.00 0.00 64 1014.7
20260507041548 38 0 0.0 0.0 0.00 0.00 0.00 64 1014.9
20260507041047 39 0 0.0 0.0 0.00 0.00 0.00 63 1014.9
20260507040547 39 0 0.0 2.0 0.00 0.00 0.00 63 1014.9
20260507040056 39 0 0.0 2.0 0.00 0.00 0.00 62 1015.0
20260507035544 39 0 0.0 0.0 0.00 0.00 0.00 61 1015.1
20260507035043 40 0 0.0 0.0 0.00 0.00 0.00 61 1015.1
20260507034615 40 0 0.0 0.0 0.00 0.00 0.00 60 1015.1
20260507034044 40 0 0.0 0.0 0.00 0.00 0.00 61 1015.2
20260507033543 40 0 0.0 1.0 0.00 0.00 0.00 60 1015.2
20260507033103 40 0 0.0 1.0 0.00 0.00 0.00 60 1015.0
20260507032546 40 0 0.0 1.0 0.00 0.00 0.00 59 1015.1
20260507032046 41 0 0.0 3.0 0.00 0.00 0.00 60 1015.1
20260507031552 41 0 0.0 3.0 0.00 0.00 0.00 59 1015.0
20260507031044 41 0 0.0 0.0 0.00 0.00 0.00 59 1015.0